Regional Weather Roundup
Issued by NWS Grand Forks, ND

Home | Current Version | Previous Version | Graphics & Text | Print | Product List | Glossary On
Versions: 1 2 3 4 5 6 7 8 9 10 11 12 13 14 15 16 17 18 19 20 21 22 23 24 25 26 27 28 29 30 31 32 33 34 35 36 37 38 39 40 41 42 43 44 45 46 47 48 49 50
000
ASUS43 KFGF 110310
RWRFGF
PRAIRIE TO PINES  WEATHER ROUNDUP
NATIONAL WEATHER SERVICE EASTERN NORTH DAKOTA/GRAND FORKS ND
900 PM CST WED FEB 10 2016

 **SATELLITE DATA USED TO AUGMENT SKY COVER AT AUTOMATED STATIONS**
 *****  WEATHER ACROSS EASTERN NORTH DAKOTA  *****

CITY           SKY/WX    TMP DP  RH WIND       PRES   REMARKS
GRAND FORKS    CLOUDY     9  -1  64 N9        30.31R WCI  -4
GRAND FRKS AFB CLOUDY     7  -2  67 NE5       30.29S WCI  -2
DEVILS LAKE    FLURRIES   6   1  80 SE5       30.25S WCI  -3
FARGO          CLOUDY    10   2  69 N8        30.27S WCI  -2
WAHPETON ARPT  CLOUDY     9   1  72 N6        30.27R WCI  -1
$$

 ***** WEATHER ACROSS CENTRAL AND WESTERN NORTH DAKOTA  *****

CITY           SKY/WX    TMP DP  RH WIND       PRES   REMARKS
BISMARCK       CLOUDY    19  11  70 E9        30.20S WCI   8
MINOT          CLOUDY    13   5  70 E3        30.20F
JAMESTOWN      CLOUDY     8   2  76 E6        30.23S WCI  -2
MINOT AFB      CLOUDY    11   8  88 NE3       30.21S
GARRISON         N/A     14   9  80 NE5       30.18S WCI   6
WILLISTON      CLOUDY    28  24  85 E3        30.16F
DICKINSON      CLOUDY    25  20  81 E8        30.11R WCI  16
HETTINGER      CLOUDY    30  24  78 N5        30.13S
$$

 *****  OTHER AIRPORT OBSERVATIONS IN OUR AREA  *****

CITY           SKY/WX    TMP DP  RH WIND       PRES   REMARKS
WALHALLA         N/A      0  -2  92 CALM      30.30F
GRAFTON AIRPOR FAIR       3  -2  78 N6        30.33F WCI  -8
VALLEY CITY AR CLOUDY     7   1  78 CALM      30.26F
CANDO          NOT AVBL
CAVALIER APRT  FAIR       1  -2  85 CALM      30.32R
GWINNER        CLOUDY    10   5  79 N10       30.26R WCI  -3
SHEYENNE NWR     N/A      4  -2  75 N5        29.95S WCI  -5
ROLLA          CLOUDY     0  -4  85 SW5       30.22R WCI -10
 ***** THE ABOVE OBSERVATIONS ARE NON NWS ARE NOT QUALITY
       CONTROLLED AND MAY MIS-REPORT RAIN FOR SNOW...
$$

  *****  WEATHER ACROSS NORTHERN MINNESOTA  *****

CITY           SKY/WX    TMP DP  RH WIND       PRES   REMARKS
FLAG ISLAND    CLOUDY    -8 -13  77 CALM      30.25S
WARROAD        CLOUDY   -11 -17  77 W3        30.27R
ROSEAU         CLOUDY    -8 -15  71 CALM      30.27S
HALLOCK        CLOUDY     0  -6  78 CALM      30.30S
THF RVR FALLS  CLOUDY     3  -9  55 CALM      30.27S
BAUDETTE       CLOUDY   -19 -26  70 CALM      30.23S
WASKISH        CLOUDY    -9 -15  77 CALM      30.24S
CROOKSTON      PTCLDY     7   0  72 N6        30.31R WCI  -3
GREENBUSH NDAW   N/A     -8 -11  84 W1          N/A
$$
  *****  WEATHER ACROSS CENTRAL AND WEST MINNESOTA  *****

CITY           SKY/WX    TMP DP  RH WIND       PRES   REMARKS
FOSSTON        CLOUDY    -2  -9  71 CALM      30.26R
BEMIDJI        CLOUDY    -3  -8  77 CALM      30.23R
PARK RAPIDS    CLOUDY     7  -5  57 NE5       30.20S WCI  -2
ELBOW LAKE     MOCLDY    10   1  67 NE3       30.24R
WADENA         CLOUDY     9  -2  61 CALM      30.21R
DETROIT LAKES  CLOUDY    10   5  79 NW6       30.23R WCI   1
MOORHEAD       CLOUDY    10   3  72 N8        30.27S WCI  -1
FERGUS FALLS   CLOUDY    10   1  67 N3        30.27S
MORRIS MN      CLOUDY     9   3  78 NW5       30.22S WCI   0
STAPLES        CLOUDY     7  -6  56 CALM      30.21S
$$
  *****  WEATHER ELSEWHERE ACROSS MINNESOTA  *****

CITY           SKY/WX    TMP DP  RH WIND       PRES   REMARKS
DULUTH         CLEAR      1 -10  60 N14       30.15S WCI -17
INTRNTL FALLS  CLEAR    -19 -23  81 NW5       30.22S WCI -32
ELY            CLEAR     -9 -15  77 W3        30.17F
CLOQUET        CLEAR      1  -9  60 NW8       30.18R WCI -12
WHEATON        CLOUDY     9   5  85 W3        30.28R
BRAINERD       CLOUDY     5  -5  63 N6        30.21S WCI  -6
HIBBING        CLOUDY    -7 -13  75 N9        30.19S WCI -24
ALEXANDRIA     CLOUDY    10  -2  58 N6        30.21R WCI   0
SAINT CLOUD    CLOUDY    11  -5  48 N5        30.23R WCI   3
MINNEAPOLIS    CLOUDY    11  -2  56 N5        30.24R WCI   3
$$

  *****  WEATHER ACROSS SOUTH DAKOTA  *****

CITY           SKY/WX    TMP DP  RH WIND       PRES   REMARKS
SIOUX FALLS    CLOUDY    13   7  77 E10       30.17R WCI   0
BROOKINGS      FLURRIES  10   5  80 NE9       30.17S WCI  -3
WATERTOWN      CLOUDY    10   4  76 E8        30.17S WCI  -2
HURON          CLOUDY    17  11  77 E7        30.21R WCI   8
SISSETON         N/A     11   6  81 N5        30.25R WCI   3
ABERDEEN       CLOUDY    14   8  77 NE9       30.22R WCI   2
MITCHELL       CLOUDY    20  14  77 E6        30.20R WCI  12
PIERRE         CLOUDY    26  22  84 E8        30.16R WCI  18
MOBRIDGE       CLOUDY    21  15  78 E6        30.15R WCI  13
RAPID CITY     CLEAR     33  28  81 NE14      30.12R WCI  23
$$

  *****  SOME WEATHER IN NEARBY STATES *****

CITY           SKY/WX    TMP DP  RH WIND       PRES   REMARKS
GLASGOW MT     CLOUDY    32  26  78 E7        30.13F
GREAT FALLS MT CLOUDY    52  24  33 SW20      30.04F
CHEYENNE WY    CLOUDY    39  17  41 NW12      30.18S
SCOTTSBLUFF NE CLEAR     38  26  62 NW9       30.12R
OMAHA NE       CLOUDY    25  19  78 NE8       30.12R WCI  16
DES MOINES IA  CLOUDY    18  11  74 NE10      30.16R WCI   6
DAVENPORT IA   CLEAR      9   2  73 N7        30.17R WCI  -2
CHICAGO IL     PTCLDY    12   0  58 N6        30.14R WCI   3
EAU CLAIRE WI  CLOUDY     7  -5  57 NW3       30.20R
LA CROSSE WI   CLOUDY     7  -3  64 N8        30.22R WCI  -6
$$

  *****  SOME NATIONAL WEATHER *****

CITY           SKY/WX    TMP DP  RH WIND       PRES   REMARKS
LA GUARDIA NY  PTCLDY    33  16  49 W14       29.74R WCI  23
RALEIGH NC     PTCLDY    28   7  41 NW7       30.04R WCI  21
ATLANTA GA     MOCLDY    34  10  37 NW7       30.16R
NEW ORLEANS LA CLEAR     49  32  52 SW12      30.26S
OKLAHOMA CITY  CLEAR     56  30  37 SW10      29.94F
ALBUQUERQUE NM CLOUDY    50  18  28 N9        30.30S
SALT LAKE CITY CLOUDY    30  27  88 SW5       30.46F FOG
LOS ANGELES CA CLEAR     65  44  46 W7        30.09R
BOISE ID       PTCLDY    36  31  82 W5        30.43R
SEATTLE WA     CLOUDY    52  47  83 SW10      30.28F
$$

*** WEATHER ACROSS MANITOBA...SASKATCHEWAN AND ONTARIO ***
                ***ONTARIO***

CITY           SKY/WX    TMP DP  RH WIND       PRES   REMARKS
GERALDTON      CLEAR    -17 -22  76 W3        30.06S
THUNDER BAY    CLEAR     -2 -11  65 W8        30.19R WCI -17
SIOUX LOOKOUT  CLEAR    -15 -20  76 CALM      30.16F
TORONTO        SNOWSHWR  16   9  73 W13       29.80R WCI   2
BIG TROUT LK   CLOUDY   -13 -18  77 NW9       30.11F WCI -31
PICKLE LAKE    NOT AVBL
DRYDEN         CLEAR     -8 -11  84 W8        30.17F WCI -23
KENORA         PTCLDY    -2  -9  71 W7        30.21S WCI -16
$$
                *** MANITOBA***

CITY           SKY/WX    TMP DP  RH WIND       PRES   REMARKS
BRANDON        FLURRIES   1  -2  85 E3        30.25F
DAUPHIN        CLOUDY     5   0  78 NW3       30.25F
ISLAND LAKE    NOT AVBL
PILOT MOUND      N/A      0  -4  85 E6          N/A  WCI -12
THE PAS        FLURRIES   3   0  85 N7        30.31S WCI  -9
THOMPSON       CLEAR    -11 -17  77 NW6       30.24F WCI -25
WINNIPEG       MOCLDY    -2  -9  71 SW2       30.31S
LYNN LAKE      CLEAR    -15 -20  76 NW12G21   30.26F WCI -36
CHURCHILL      CRYSTALS -22 -29  69 NW20G28   30.16F WCI -51
GILLAM         CLEAR    -15 -22  70 W12       30.18F WCI -36
$$
                ***SASKATCHEWAN***

CITY           SKY/WX    TMP DP  RH WIND       PRES   REMARKS
ESTEVAN        FLURRIES  16  12  86 E9        30.17F WCI   4
KINDERSLEY     CLOUDY    23  21  93 E15       30.12F WCI  10
LLOYDMINSTER   LGT SNOW  16  14  93 E13       30.17S WCI   2
PRINCE ALBERT  CLOUDY     9   3  78 NE9       30.27F WCI  -5
REGINA         CLOUDY    18  12  79 NE3       30.18F
YORKTON        FLURRIES  12   7  79 W5        30.20S WCI   4
N. BATTLEFORD  CLOUDY    18  12  79 E9        30.22S WCI   6
LA RONGE       PTCLDY    -6 -11  77 CALM      30.34F
SASKATOON      CLOUDY    16  14  93 E13       30.23F WCI   2
SWIFT CURRENT  CLOUDY    23  23 100 E12       30.09S WCI  12
$$
NOTE: THESE ARE AUTOMATED STATIONS WITH LIMITED QUALITY CONTROL
      "FAIR" INDICATES FEW OR NO CLOUDS BELOW 12,000 FEET WITH NO
      SIGNIFICANT WEATHER AND/OR OBSTRUCTIONS TO VISIBILITY.
      SKY/WX - SKY CONDITION AND SIGNIFICANT WEATHER.
      TMP - AIR TEMPERATURE.    DP   - DEWPOINT TEMPERATURE.
      RH  - RELATIVE HUMIDITY.  PRES - PRESSURE.
      HX  - HEAT INDEX.         WCI  - WIND CHILL INDEX.
$



USA.gov is the U.S. government's official web portal to all federal, state and local government web resources and services.